owner,sensor,date,latitude,longitude,vertical_datum,mass_concentration_of_oxygen_in_sea_water,qcFlag 
SCCF RECON,ioos:station:SCCF:53:1,2010-11-01T00:00:00Z,26.6493,-81.8810,2.02,6.87,1111122 
SCCF RECON,ioos:station:SCCF:53:1,2010-11-01T01:00:00Z,26.6493,-81.8810,2.075,6.39,1111122 
SCCF RECON,ioos:station:SCCF:53:1,2010-11-01T02:00:00Z,26.6493,-81.8810,2.13,6.09,1111122 
SCCF RECON,ioos:station:SCCF:53:1,2010-11-01T03:00:00Z,26.6493,-81.8810,2.19,6.41,1111122 
SCCF RECON,ioos:station:SCCF:53:1,2010-11-01T04:00:00Z,26.6493,-81.8810,2.23,6.37,1111122 
SCCF RECON,ioos:station:SCCF:53:1,2010-11-01T05:00:00Z,26.6493,-81.8810,2.25,6.14,1111122 
SCCF RECON,ioos:station:SCCF:53:1,2010-11-01T06:00:00Z,26.6493,-81.8810,2.22,6.24,1111122 
SCCF RECON,ioos:station:SCCF:53:1,2010-11-01T07:00:00Z,26.6493,-81.8810,2.17,6.11,1111122 
SCCF RECON,ioos:station:SCCF:53:1,2010-11-01T08:00:00Z,26.6493,-81.8810,2.12,6.06,1111122 
SCCF RECON,ioos:station:SCCF:53:1,2010-11-01T09:00:00Z,26.6493,-81.8810,2.08,5.8,1111122 
SCCF RECON,ioos:station:SCCF:53:1,2010-11-01T10:00:00Z,26.6493,-81.8810,2.05,5.83,1111122 
SCCF RECON,ioos:station:SCCF:53:1,2010-11-01T11:00:00Z,26.6493,-81.8810,2.05,5.87,1111122 
SCCF RECON,ioos:station:SCCF:53:1,2010-11-01T12:00:00Z,26.6493,-81.8810,2.09,5.96,1111122 
SCCF RECON,ioos:station:SCCF:53:1,2010-11-01T13:00:00Z,26.6493,-81.8810,2.146,5.83,1111122 
SCCF RECON,ioos:station:SCCF:53:1,2010-11-01T14:00:00Z,26.6493,-81.8810,2.196,5.66,1111122 
SCCF RECON,ioos:station:SCCF:53:1,2010-11-01T15:00:00Z,26.6493,-81.8810,2.247,5.85,1111122 
SCCF RECON,ioos:station:SCCF:53:1,2010-11-01T16:00:00Z,26.6493,-81.8810,2.28,5.81,1111122 
SCCF RECON,ioos:station:SCCF:53:1,2010-11-01T17:00:00Z,26.6493,-81.8810,2.27,5.95,1111122 
SCCF RECON,ioos:station:SCCF:53:1,2010-11-01T18:00:00Z,26.6493,-81.8810,2.211,5.76,1111122 
SCCF RECON,ioos:station:SCCF:53:1,2010-11-01T19:00:00Z,26.6493,-81.8810,2.152,6.4,1111122 
SCCF RECON,ioos:station:SCCF:53:1,2010-11-01T20:00:00Z,26.6493,-81.8810,2.102,5.74,1111122 
SCCF RECON,ioos:station:SCCF:53:1,2010-11-01T21:00:00Z,26.6493,-81.8810,2.05,5.27,1111122 
SCCF RECON,ioos:station:SCCF:53:1,2010-11-01T22:00:00Z,26.6493,-81.8810,2.01,5.55,1111122 
SCCF RECON,ioos:station:SCCF:53:1,2010-11-01T23:00:00Z,26.6493,-81.8810,2.0,5.48,1111122 
SCCF RECON,ioos:station:SCCF:53:1,2010-11-02T00:00:00Z,26.6493,-81.8810,2.018,5.18,1111122 
SCCF RECON,ioos:station:SCCF:53:1,2010-11-02T01:00:00Z,26.6493,-81.8810,2.07,5.62,1111122 
SCCF RECON,ioos:station:SCCF:53:1,2010-11-02T02:00:00Z,26.6493,-81.8810,2.129,6.15,1111122 
SCCF RECON,ioos:station:SCCF:53:1,2010-11-02T03:00:00Z,26.6493,-81.8810,2.19,6.38,1111122 
SCCF RECON,ioos:station:SCCF:53:1,2010-11-02T04:00:00Z,26.6493,-81.8810,2.24,6.24,1111122 
SCCF RECON,ioos:station:SCCF:53:1,2010-11-02T05:00:00Z,26.6493,-81.8810,2.27,6.04,1111122 
SCCF RECON,ioos:station:SCCF:53:1,2010-11-02T06:00:00Z,26.6493,-81.8810,2.26,5.7,1111122 
SCCF RECON,ioos:station:SCCF:53:1,2010-11-02T07:00:00Z,26.6493,-81.8810,2.2,5.75,1111122 
SCCF RECON,ioos:station:SCCF:53:1,2010-11-02T08:00:00Z,26.6493,-81.8810,2.14,5.65,1111122 
SCCF RECON,ioos:station:SCCF:53:1,2010-11-02T09:00:00Z,26.6493,-81.8810,2.093,5.33,1111122 
SCCF RECON,ioos:station:SCCF:53:1,2010-11-02T10:00:00Z,26.6493,-81.8810,2.04,5.32,1111122 
SCCF RECON,ioos:station:SCCF:53:1,2010-11-02T11:00:00Z,26.6493,-81.8810,2.0,5.19,1111122 
SCCF RECON,ioos:station:SCCF:53:1,2010-11-02T12:00:00Z,26.6493,-81.8810,1.98,5.34,1111122 
SCCF RECON,ioos:station:SCCF:53:1,2010-11-02T13:00:00Z,26.6493,-81.8810,1.99,5.45,1111122 
SCCF RECON,ioos:station:SCCF:53:1,2010-11-02T14:00:00Z,26.6493,-81.8810,2.041,5.19,1111122 
SCCF RECON,ioos:station:SCCF:53:1,2010-11-02T15:00:00Z,26.6493,-81.8810,2.08,5.37,1111122 
SCCF RECON,ioos:station:SCCF:53:1,2010-11-02T16:00:00Z,26.6493,-81.8810,2.121,5.64,1111122 
SCCF RECON,ioos:station:SCCF:53:1,2010-11-02T17:00:00Z,26.6493,-81.8810,2.16,6.0,1111122 
SCCF RECON,ioos:station:SCCF:53:1,2010-11-02T18:00:00Z,26.6493,-81.8810,2.176,6.6,1111122 
SCCF RECON,ioos:station:SCCF:53:1,2010-11-02T19:00:00Z,26.6493,-81.8810,2.13,5.91,1111122 
SCCF RECON,ioos:station:SCCF:53:1,2010-11-02T20:00:00Z,26.6493,-81.8810,2.079,5.2,1111122 
SCCF RECON,ioos:station:SCCF:53:1,2010-11-02T21:00:00Z,26.6493,-81.8810,2.03,5.53,1111122 
SCCF RECON,ioos:station:SCCF:53:1,2010-11-02T22:00:00Z,26.6493,-81.8810,1.981,5.48,1111122 
SCCF RECON,ioos:station:SCCF:53:1,2010-11-02T23:00:00Z,26.6493,-81.8810,1.95,5.24,1111122 
SCCF RECON,ioos:station:SCCF:53:1,2010-11-03T00:00:00Z,26.6493,-81.8810,1.94,5.56,1111122 
SCCF RECON,ioos:station:SCCF:53:1,2010-11-03T01:00:00Z,26.6493,-81.8810,2.0,5.7,1111122 
SCCF RECON,ioos:station:SCCF:53:1,2010-11-03T02:00:00Z,26.6493,-81.8810,2.06,5.78,1111122 
SCCF RECON,ioos:station:SCCF:53:1,2010-11-03T03:00:00Z,26.6493,-81.8810,2.11,6.42,1111122 
SCCF RECON,ioos:station:SCCF:53:1,2010-11-03T04:00:00Z,26.6493,-81.8810,2.18,6.39,1111122 
SCCF RECON,ioos:station:SCCF:53:1,2010-11-03T05:00:00Z,26.6493,-81.8810,2.23,6.31,1111122 
SCCF RECON,ioos:station:SCCF:53:1,2010-11-03T06:00:00Z,26.6493,-81.8810,2.25,6.05,1111122 
SCCF RECON,ioos:station:SCCF:53:1,2010-11-03T07:00:00Z,26.6493,-81.8810,2.22,5.69,1111122 
SCCF RECON,ioos:station:SCCF:53:1,2010-11-03T08:00:00Z,26.6493,-81.8810,2.151,6.19,1111122 
SCCF RECON,ioos:station:SCCF:53:1,2010-11-03T09:00:00Z,26.6493,-81.8810,2.1,6.15,1111122 
SCCF RECON,ioos:station:SCCF:53:1,2010-11-03T10:00:00Z,26.6493,-81.8810,2.04,5.88,1111122 
SCCF RECON,ioos:station:SCCF:53:1,2010-11-03T11:00:00Z,26.6493,-81.8810,1.99,5.66,1111122 
SCCF RECON,ioos:station:SCCF:53:1,2010-11-03T12:00:00Z,26.6493,-81.8810,1.94,5.36,1111122 
SCCF RECON,ioos:station:SCCF:53:1,2010-11-03T13:00:00Z,26.6493,-81.8810,1.927,5.69,1111122 
SCCF RECON,ioos:station:SCCF:53:1,2010-11-03T14:00:00Z,26.6493,-81.8810,1.974,5.63,1111122 
SCCF RECON,ioos:station:SCCF:53:1,2010-11-03T15:00:00Z,26.6493,-81.8810,2.02,5.95,1111122 
SCCF RECON,ioos:station:SCCF:53:1,2010-11-03T16:00:00Z,26.6493,-81.8810,2.06,6.53,1111122 
SCCF RECON,ioos:station:SCCF:53:1,2010-11-03T17:00:00Z,26.6493,-81.8810,2.109,6.35,1111122 
SCCF RECON,ioos:station:SCCF:53:1,2010-11-03T18:00:00Z,26.6493,-81.8810,2.159,6.53,1111122 
SCCF RECON,ioos:station:SCCF:53:1,2010-11-03T19:00:00Z,26.6493,-81.8810,2.181,6.59,1111122 
SCCF RECON,ioos:station:SCCF:53:1,2010-11-03T20:00:00Z,26.6493,-81.8810,2.179,6.27,1111122 
SCCF RECON,ioos:station:SCCF:53:1,2010-11-03T21:00:00Z,26.6493,-81.8810,2.154,6.25,1111122 
SCCF RECON,ioos:station:SCCF:53:1,2010-11-03T22:00:00Z,26.6493,-81.8810,2.115,6.4,1111122 
SCCF RECON,ioos:station:SCCF:53:1,2010-11-03T23:00:00Z,26.6493,-81.8810,2.06,6.29,1111122 
SCCF RECON,ioos:station:SCCF:53:1,2010-11-04T00:00:00Z,26.6493,-81.8810,2.03,6.23,1111122 
SCCF RECON,ioos:station:SCCF:53:1,2010-11-04T01:00:00Z,26.6493,-81.8810,2.05,6.06,1111122 
SCCF RECON,ioos:station:SCCF:53:1,2010-11-04T02:00:00Z,26.6493,-81.8810,2.11,6.16,1111122 
SCCF RECON,ioos:station:SCCF:53:1,2010-11-04T03:00:00Z,26.6493,-81.8810,2.168,6.23,1111122 
SCCF RECON,ioos:station:SCCF:53:1,2010-11-04T04:00:00Z,26.6493,-81.8810,2.22,6.28,1111122 
SCCF RECON,ioos:station:SCCF:53:1,2010-11-04T05:00:00Z,26.6493,-81.8810,2.28,6.41,1111122 
SCCF RECON,ioos:station:SCCF:53:1,2010-11-04T06:00:00Z,26.6493,-81.8810,2.32,6.32,1111122 
SCCF RECON,ioos:station:SCCF:53:1,2010-11-04T07:00:00Z,26.6493,-81.8810,2.33,6.26,1111122 
SCCF RECON,ioos:station:SCCF:53:1,2010-11-04T08:00:00Z,26.6493,-81.8810,2.294,6.25,1111122 
SCCF RECON,ioos:station:SCCF:53:1,2010-11-04T09:00:00Z,26.6493,-81.8810,2.243,6.14,1111122 
SCCF RECON,ioos:station:SCCF:53:1,2010-11-04T10:00:00Z,26.6493,-81.8810,2.18,6.06,1111122 
SCCF RECON,ioos:station:SCCF:53:1,2010-11-04T11:00:00Z,26.6493,-81.8810,2.12,5.92,1111122 
SCCF RECON,ioos:station:SCCF:53:1,2010-11-04T12:00:00Z,26.6493,-81.8810,2.06,5.8,1111122 
SCCF RECON,ioos:station:SCCF:53:1,2010-11-04T13:00:00Z,26.6493,-81.8810,2.009,5.7,1111122 
SCCF RECON,ioos:station:SCCF:53:1,2010-11-04T14:00:00Z,26.6493,-81.8810,2.009,5.61,1111122 
SCCF RECON,ioos:station:SCCF:53:1,2010-11-04T15:00:00Z,26.6493,-81.8810,2.064,5.55,1111122 
SCCF RECON,ioos:station:SCCF:53:1,2010-11-04T16:00:00Z,26.6493,-81.8810,2.12,5.84,1111122 
SCCF RECON,ioos:station:SCCF:53:1,2010-11-04T17:00:00Z,26.6493,-81.8810,2.18,6.12,1111122 
SCCF RECON,ioos:station:SCCF:53:1,2010-11-04T18:00:00Z,26.6493,-81.8810,2.249,6.1,1111122 
SCCF RECON,ioos:station:SCCF:53:1,2010-11-04T19:00:00Z,26.6493,-81.8810,2.319,6.2,1111122 
SCCF RECON,ioos:station:SCCF:53:1,2010-11-04T20:00:00Z,26.6493,-81.8810,2.337,6.28,1111122 
SCCF RECON,ioos:station:SCCF:53:1,2010-11-04T21:00:00Z,26.6493,-81.8810,2.33,6.09,1111122 
SCCF RECON,ioos:station:SCCF:53:1,2010-11-04T22:00:00Z,26.6493,-81.8810,2.29,6.42,1111122 
SCCF RECON,ioos:station:SCCF:53:1,2010-11-04T23:00:00Z,26.6493,-81.8810,2.238,6.02,1111122 
SCCF RECON,ioos:station:SCCF:53:1,2010-11-05T00:00:00Z,26.6493,-81.8810,2.2,6.14,1111122 
SCCF RECON,ioos:station:SCCF:53:1,2010-11-05T01:00:00Z,26.6493,-81.8810,2.19,6.02,1111122 
SCCF RECON,ioos:station:SCCF:53:1,2010-11-05T02:00:00Z,26.6493,-81.8810,2.243,5.84,1111122 
SCCF RECON,ioos:station:SCCF:53:1,2010-11-05T03:00:00Z,26.6493,-81.8810,2.31,5.75,1111122 
SCCF RECON,ioos:station:SCCF:53:1,2010-11-05T04:00:00Z,26.6493,-81.8810,2.37,5.72,1111122 
SCCF RECON,ioos:station:SCCF:53:1,2010-11-05T05:00:00Z,26.6493,-81.8810,2.44,5.93,1111122 
SCCF RECON,ioos:station:SCCF:53:1,2010-11-05T06:00:00Z,26.6493,-81.8810,2.498,6.23,1111122 
SCCF RECON,ioos:station:SCCF:53:1,2010-11-05T07:00:00Z,26.6493,-81.8810,2.506,6.21,1111122 
SCCF RECON,ioos:station:SCCF:53:1,2010-11-05T08:00:00Z,26.6493,-81.8810,2.46,6.21,1111122 
SCCF RECON,ioos:station:SCCF:53:1,2010-11-05T09:00:00Z,26.6493,-81.8810,2.405,6.42,1111122 
SCCF RECON,ioos:station:SCCF:53:1,2010-11-05T10:00:00Z,26.6493,-81.8810,2.34,6.17,1111122 
SCCF RECON,ioos:station:SCCF:53:1,2010-11-05T11:00:00Z,26.6493,-81.8810,2.27,6.21,1111122 
SCCF RECON,ioos:station:SCCF:53:1,2010-11-05T12:00:00Z,26.6493,-81.8810,2.22,6.07,1111122 
SCCF RECON,ioos:station:SCCF:53:1,2010-11-05T13:00:00Z,26.6493,-81.8810,2.16,5.99,1111122 
SCCF RECON,ioos:station:SCCF:53:1,2010-11-05T14:00:00Z,26.6493,-81.8810,2.104,6.04,1111122 
SCCF RECON,ioos:station:SCCF:53:1,2010-11-05T15:00:00Z,26.6493,-81.8810,2.053,6.1,1111122 
SCCF RECON,ioos:station:SCCF:53:1,2010-11-05T16:00:00Z,26.6493,-81.8810,2.007,6.21,1111122 
SCCF RECON,ioos:station:SCCF:53:1,2010-11-05T17:00:00Z,26.6493,-81.8810,1.971,6.2,1111122 
SCCF RECON,ioos:station:SCCF:53:1,2010-11-05T18:00:00Z,26.6493,-81.8810,1.973,6.17,1111122 
SCCF RECON,ioos:station:SCCF:53:1,2010-11-05T19:00:00Z,26.6493,-81.8810,2.002,6.44,1111122 
SCCF RECON,ioos:station:SCCF:53:1,2010-11-05T20:00:00Z,26.6493,-81.8810,2.008,6.41,1111122 
SCCF RECON,ioos:station:SCCF:53:1,2010-11-05T21:00:00Z,26.6493,-81.8810,1.987,6.51,1111122 
SCCF RECON,ioos:station:SCCF:53:1,2010-11-05T22:00:00Z,26.6493,-81.8810,1.959,6.64,1111122 
SCCF RECON,ioos:station:SCCF:53:1,2010-11-05T23:00:00Z,26.6493,-81.8810,1.93,6.55,1111122 
SCCF RECON,ioos:station:SCCF:53:1,2010-11-06T00:00:00Z,26.6493,-81.8810,1.903,6.64,1111122 
SCCF RECON,ioos:station:SCCF:53:1,2010-11-06T01:00:00Z,26.6493,-81.8810,1.883,6.64,1111122 
SCCF RECON,ioos:station:SCCF:53:1,2010-11-06T02:00:00Z,26.6493,-81.8810,1.89,6.57,1111122 
SCCF RECON,ioos:station:SCCF:53:1,2010-11-06T03:00:00Z,26.6493,-81.8810,1.96,6.55,1111122 
SCCF RECON,ioos:station:SCCF:53:1,2010-11-06T04:00:00Z,26.6493,-81.8810,2.019,6.6,1111122 
SCCF RECON,ioos:station:SCCF:53:1,2010-11-06T05:00:00Z,26.6493,-81.8810,2.076,6.64,1111122 
SCCF RECON,ioos:station:SCCF:53:1,2010-11-06T06:00:00Z,26.6493,-81.8810,2.147,6.65,1111122 
SCCF RECON,ioos:station:SCCF:53:1,2010-11-06T07:00:00Z,26.6493,-81.8810,2.19,6.73,1111122 
SCCF RECON,ioos:station:SCCF:53:1,2010-11-06T08:00:00Z,26.6493,-81.8810,2.19,6.7,1111122 
SCCF RECON,ioos:station:SCCF:53:1,2010-11-06T09:00:00Z,26.6493,-81.8810,2.14,6.71,1111122 
SCCF RECON,ioos:station:SCCF:53:1,2010-11-06T10:00:00Z,26.6493,-81.8810,2.097,6.68,1111122 
SCCF RECON,ioos:station:SCCF:53:1,2010-11-06T11:00:00Z,26.6493,-81.8810,2.05,6.74,1111122 
SCCF RECON,ioos:station:SCCF:53:1,2010-11-06T12:00:00Z,26.6493,-81.8810,2.01,6.83,1111122 
SCCF RECON,ioos:station:SCCF:53:1,2010-11-06T13:00:00Z,26.6493,-81.8810,1.97,6.9,1111122 
SCCF RECON,ioos:station:SCCF:53:1,2010-11-06T14:00:00Z,26.6493,-81.8810,1.929,6.88,1111122 
SCCF RECON,ioos:station:SCCF:53:1,2010-11-06T15:00:00Z,26.6493,-81.8810,1.878,7.0,1111122 
SCCF RECON,ioos:station:SCCF:53:1,2010-11-06T16:00:00Z,26.6493,-81.8810,1.833,7.01,1111122 
SCCF RECON,ioos:station:SCCF:53:1,2010-11-06T17:00:00Z,26.6493,-81.8810,1.813,6.9,1111122 
SCCF RECON,ioos:station:SCCF:53:1,2010-11-06T18:00:00Z,26.6493,-81.8810,1.816,7.18,1111122 
SCCF RECON,ioos:station:SCCF:53:1,2010-11-06T19:00:00Z,26.6493,-81.8810,1.859,7.24,1111122 
SCCF RECON,ioos:station:SCCF:53:1,2010-11-06T20:00:00Z,26.6493,-81.8810,1.896,7.27,1111122 
SCCF RECON,ioos:station:SCCF:53:1,2010-11-06T21:00:00Z,26.6493,-81.8810,1.92,7.28,1111122 
SCCF RECON,ioos:station:SCCF:53:1,2010-11-06T22:00:00Z,26.6493,-81.8810,1.93,7.14,1111122 
SCCF RECON,ioos:station:SCCF:53:1,2010-11-06T23:00:00Z,26.6493,-81.8810,1.92,7.31,1111122 
SCCF RECON,ioos:station:SCCF:53:1,2010-11-07T00:00:00Z,26.6493,-81.8810,1.9,7.3,1111122 
SCCF RECON,ioos:station:SCCF:53:1,2010-11-07T01:00:00Z,26.6493,-81.8810,1.88,7.34,1111122 
SCCF RECON,ioos:station:SCCF:53:1,2010-11-07T02:00:00Z,26.6493,-81.8810,1.88,7.07,1111122 
SCCF RECON,ioos:station:SCCF:53:1,2010-11-07T03:00:00Z,26.6493,-81.8810,1.91,7.22,1111122 
SCCF RECON,ioos:station:SCCF:53:1,2010-11-07T04:00:00Z,26.6493,-81.8810,1.96,7.3,1111122 
SCCF RECON,ioos:station:SCCF:53:1,2010-11-07T05:00:00Z,26.6493,-81.8810,2.01,7.38,1111122 
SCCF RECON,ioos:station:SCCF:53:1,2010-11-07T06:00:00Z,26.6493,-81.8810,2.06,7.39,1111122 
SCCF RECON,ioos:station:SCCF:53:1,2010-11-07T07:00:00Z,26.6493,-81.8810,2.11,7.51,1111122 
SCCF RECON,ioos:station:SCCF:53:1,2010-11-07T08:00:00Z,26.6493,-81.8810,2.126,7.48,1111122 
SCCF RECON,ioos:station:SCCF:53:1,2010-11-07T09:00:00Z,26.6493,-81.8810,2.09,7.49,1111122 
SCCF RECON,ioos:station:SCCF:53:1,2010-11-07T10:00:00Z,26.6493,-81.8810,2.04,7.41,1111122 
SCCF RECON,ioos:station:SCCF:53:1,2010-11-07T11:00:00Z,26.6493,-81.8810,2.006,7.37,1111122 
SCCF RECON,ioos:station:SCCF:53:1,2010-11-07T12:00:00Z,26.6493,-81.8810,1.962,7.39,1111122 
SCCF RECON,ioos:station:SCCF:53:1,2010-11-07T13:00:00Z,26.6493,-81.8810,1.911,7.42,1111122 
SCCF RECON,ioos:station:SCCF:53:1,2010-11-07T14:00:00Z,26.6493,-81.8810,1.87,7.5,1111122 
SCCF RECON,ioos:station:SCCF:53:1,2010-11-07T15:00:00Z,26.6493,-81.8810,1.829,7.56,1111122 
SCCF RECON,ioos:station:SCCF:53:1,2010-11-07T16:00:00Z,26.6493,-81.8810,1.78,7.62,1111122 
SCCF RECON,ioos:station:SCCF:53:1,2010-11-07T17:00:00Z,26.6493,-81.8810,1.741,7.66,1111122 
SCCF RECON,ioos:station:SCCF:53:1,2010-11-07T18:00:00Z,26.6493,-81.8810,1.741,7.65,1111122 
SCCF RECON,ioos:station:SCCF:53:1,2010-11-07T19:00:00Z,26.6493,-81.8810,1.782,7.68,1111122 
SCCF RECON,ioos:station:SCCF:53:1,2010-11-07T20:00:00Z,26.6493,-81.8810,1.81,7.75,1111122 
SCCF RECON,ioos:station:SCCF:53:1,2010-11-07T21:00:00Z,26.6493,-81.8810,1.846,7.74,1111122 
SCCF RECON,ioos:station:SCCF:53:1,2010-11-07T22:00:00Z,26.6493,-81.8810,1.882,7.81,1111122 
SCCF RECON,ioos:station:SCCF:53:1,2010-11-07T23:00:00Z,26.6493,-81.8810,1.901,7.87,1111122 
SCCF RECON,ioos:station:SCCF:53:1,2010-11-08T00:00:00Z,26.6493,-81.8810,1.93,7.76,1111122 
SCCF RECON,ioos:station:SCCF:53:1,2010-11-08T01:00:00Z,26.6493,-81.8810,1.94,7.74,1111122 
SCCF RECON,ioos:station:SCCF:53:1,2010-11-08T02:00:00Z,26.6493,-81.8810,1.93,7.77,1111122 
SCCF RECON,ioos:station:SCCF:53:1,2010-11-08T03:00:00Z,26.6493,-81.8810,1.922,7.76,1111122 
SCCF RECON,ioos:station:SCCF:53:1,2010-11-08T04:00:00Z,26.6493,-81.8810,1.93,7.84,1111122 
SCCF RECON,ioos:station:SCCF:53:1,2010-11-08T05:00:00Z,26.6493,-81.8810,1.973,7.91,1111122 
SCCF RECON,ioos:station:SCCF:53:1,2010-11-08T06:00:00Z,26.6493,-81.8810,2.013,7.97,1111122 
SCCF RECON,ioos:station:SCCF:53:1,2010-11-08T07:00:00Z,26.6493,-81.8810,2.061,7.98,1111122 
SCCF RECON,ioos:station:SCCF:53:1,2010-11-08T08:00:00Z,26.6493,-81.8810,2.1,7.97,1111122 
SCCF RECON,ioos:station:SCCF:53:1,2010-11-08T09:00:00Z,26.6493,-81.8810,2.09,7.92,1111122 
SCCF RECON,ioos:station:SCCF:53:1,2010-11-08T10:00:00Z,26.6493,-81.8810,2.05,7.99,1111122 
SCCF RECON,ioos:station:SCCF:53:1,2010-11-08T11:00:00Z,26.6493,-81.8810,2.001,7.94,1111122 
SCCF RECON,ioos:station:SCCF:53:1,2010-11-08T12:00:00Z,26.6493,-81.8810,1.96,7.9,1111122 
SCCF RECON,ioos:station:SCCF:53:1,2010-11-08T13:00:00Z,26.6493,-81.8810,1.91,7.92,1111122 
SCCF RECON,ioos:station:SCCF:53:1,2010-11-08T14:00:00Z,26.6493,-81.8810,1.869,7.9,1111122 
SCCF RECON,ioos:station:SCCF:53:1,2010-11-08T15:00:00Z,26.6493,-81.8810,1.822,7.92,1111122 
SCCF RECON,ioos:station:SCCF:53:1,2010-11-08T16:00:00Z,26.6493,-81.8810,1.78,7.96,1111122 
SCCF RECON,ioos:station:SCCF:53:1,2010-11-08T17:00:00Z,26.6493,-81.8810,1.732,7.83,1111122 
SCCF RECON,ioos:station:SCCF:53:1,2010-11-08T18:00:00Z,26.6493,-81.8810,1.73,7.89,1111122 
SCCF RECON,ioos:station:SCCF:53:1,2010-11-08T19:00:00Z,26.6493,-81.8810,1.77,7.82,1111122 
SCCF RECON,ioos:station:SCCF:53:1,2010-11-08T20:00:00Z,26.6493,-81.8810,1.81,7.94,1111122 
SCCF RECON,ioos:station:SCCF:53:1,2010-11-08T21:00:00Z,26.6493,-81.8810,1.853,8.05,1111122 
SCCF RECON,ioos:station:SCCF:53:1,2010-11-08T22:00:00Z,26.6493,-81.8810,1.912,8.13,1111122 
SCCF RECON,ioos:station:SCCF:53:1,2010-11-08T23:00:00Z,26.6493,-81.8810,1.96,8.07,1111122 
SCCF RECON,ioos:station:SCCF:53:1,2010-11-09T00:00:00Z,26.6493,-81.8810,1.99,8.11,1111122 
SCCF RECON,ioos:station:SCCF:53:1,2010-11-09T01:00:00Z,26.6493,-81.8810,2.018,8.13,1111122 
SCCF RECON,ioos:station:SCCF:53:1,2010-11-09T02:00:00Z,26.6493,-81.8810,2.03,8.14,1111122 
SCCF RECON,ioos:station:SCCF:53:1,2010-11-09T03:00:00Z,26.6493,-81.8810,2.04,8.0,1111122 
SCCF RECON,ioos:station:SCCF:53:1,2010-11-09T04:00:00Z,26.6493,-81.8810,2.07,8.02,1111122 
SCCF RECON,ioos:station:SCCF:53:1,2010-11-09T05:00:00Z,26.6493,-81.8810,2.12,7.97,1111122 
SCCF RECON,ioos:station:SCCF:53:1,2010-11-09T06:00:00Z,26.6493,-81.8810,2.17,7.98,1111122 
SCCF RECON,ioos:station:SCCF:53:1,2010-11-09T07:00:00Z,26.6493,-81.8810,2.23,7.91,1111122 
SCCF RECON,ioos:station:SCCF:53:1,2010-11-09T08:00:00Z,26.6493,-81.8810,2.29,7.98,1111122 
SCCF RECON,ioos:station:SCCF:53:1,2010-11-09T09:00:00Z,26.6493,-81.8810,2.33,7.98,1111122 
SCCF RECON,ioos:station:SCCF:53:1,2010-11-09T10:00:00Z,26.6493,-81.8810,2.33,7.94,1111122 
SCCF RECON,ioos:station:SCCF:53:1,2010-11-09T11:00:00Z,26.6493,-81.8810,2.271,7.99,1111122 
SCCF RECON,ioos:station:SCCF:53:1,2010-11-09T12:00:00Z,26.6493,-81.8810,2.22,7.91,1111122 
SCCF RECON,ioos:station:SCCF:53:1,2010-11-09T13:00:00Z,26.6493,-81.8810,2.17,7.89,1111122 
SCCF RECON,ioos:station:SCCF:53:1,2010-11-09T14:00:00Z,26.6493,-81.8810,2.114,7.86,1111122 
SCCF RECON,ioos:station:SCCF:53:1,2010-11-09T15:00:00Z,26.6493,-81.8810,2.06,7.79,1111122 
SCCF RECON,ioos:station:SCCF:53:1,2010-11-09T16:00:00Z,26.6493,-81.8810,2.001,7.87,1111122 
SCCF RECON,ioos:station:SCCF:53:1,2010-11-09T17:00:00Z,26.6493,-81.8810,1.942,7.82,1111122 
SCCF RECON,ioos:station:SCCF:53:1,2010-11-09T18:00:00Z,26.6493,-81.8810,1.9,7.84,1111122 
SCCF RECON,ioos:station:SCCF:53:1,2010-11-09T19:00:00Z,26.6493,-81.8810,1.901,7.93,1111122 
SCCF RECON,ioos:station:SCCF:53:1,2010-11-09T20:00:00Z,26.6493,-81.8810,1.94,8.22,1111122 
SCCF RECON,ioos:station:SCCF:53:1,2010-11-09T21:00:00Z,26.6493,-81.8810,1.982,8.35,1111122 
SCCF RECON,ioos:station:SCCF:53:1,2010-11-09T22:00:00Z,26.6493,-81.8810,2.027,8.07,1111122 
SCCF RECON,ioos:station:SCCF:53:1,2010-11-09T23:00:00Z,26.6493,-81.8810,2.063,7.92,1111122 
SCCF RECON,ioos:station:SCCF:53:1,2010-11-10T00:00:00Z,26.6493,-81.8810,2.088,7.81,1111122 
SCCF RECON,ioos:station:SCCF:53:1,2010-11-10T01:00:00Z,26.6493,-81.8810,2.09,7.66,1111122 
SCCF RECON,ioos:station:SCCF:53:1,2010-11-10T02:00:00Z,26.6493,-81.8810,2.09,7.79,1111122 
SCCF RECON,ioos:station:SCCF:53:1,2010-11-10T03:00:00Z,26.6493,-81.8810,2.07,7.09,1111122 
SCCF RECON,ioos:station:SCCF:53:1,2010-11-10T04:00:00Z,26.6493,-81.8810,2.06,7.3,1111122 
SCCF RECON,ioos:station:SCCF:53:1,2010-11-10T05:00:00Z,26.6493,-81.8810,2.09,7.74,1111122 
SCCF RECON,ioos:station:SCCF:53:1,2010-11-10T06:00:00Z,26.6493,-81.8810,2.14,7.98,1111122 
SCCF RECON,ioos:station:SCCF:53:1,2010-11-10T07:00:00Z,26.6493,-81.8810,2.19,7.98,1111122 
SCCF RECON,ioos:station:SCCF:53:1,2010-11-10T08:00:00Z,26.6493,-81.8810,2.25,7.97,1111122 
SCCF RECON,ioos:station:SCCF:53:1,2010-11-10T09:00:00Z,26.6493,-81.8810,2.3,7.98,1111122 
SCCF RECON,ioos:station:SCCF:53:1,2010-11-10T10:00:00Z,26.6493,-81.8810,2.34,7.95,1111122 
SCCF RECON,ioos:station:SCCF:53:1,2010-11-10T11:00:00Z,26.6493,-81.8810,2.331,7.92,1111122 
SCCF RECON,ioos:station:SCCF:53:1,2010-11-10T12:00:00Z,26.6493,-81.8810,2.286,8.05,1111122 
SCCF RECON,ioos:station:SCCF:53:1,2010-11-10T13:00:00Z,26.6493,-81.8810,2.24,7.98,1111122 
SCCF RECON,ioos:station:SCCF:53:1,2010-11-10T14:00:00Z,26.6493,-81.8810,2.18,7.95,1111122 
SCCF RECON,ioos:station:SCCF:53:1,2010-11-10T15:00:00Z,26.6493,-81.8810,2.122,7.84,1111122 
SCCF RECON,ioos:station:SCCF:53:1,2010-11-10T16:00:00Z,26.6493,-81.8810,2.068,7.83,1111122 
SCCF RECON,ioos:station:SCCF:53:1,2010-11-10T17:00:00Z,26.6493,-81.8810,2.01,7.87,1111122 
SCCF RECON,ioos:station:SCCF:53:1,2010-11-10T18:00:00Z,26.6493,-81.8810,1.96,7.96,1111122 
SCCF RECON,ioos:station:SCCF:53:1,2010-11-10T19:00:00Z,26.6493,-81.8810,1.95,8.31,1111122 
SCCF RECON,ioos:station:SCCF:53:1,2010-11-10T20:00:00Z,26.6493,-81.8810,1.99,8.36,1111122 
SCCF RECON,ioos:station:SCCF:53:1,2010-11-10T21:00:00Z,26.6493,-81.8810,2.04,8.42,1111122 
SCCF RECON,ioos:station:SCCF:53:1,2010-11-10T22:00:00Z,26.6493,-81.8810,2.09,7.95,1111122 
SCCF RECON,ioos:station:SCCF:53:1,2010-11-10T23:00:00Z,26.6493,-81.8810,2.14,7.98,1111122 
SCCF RECON,ioos:station:SCCF:53:1,2010-11-11T00:00:00Z,26.6493,-81.8810,2.18,8.0,1111122 
SCCF RECON,ioos:station:SCCF:53:1,2010-11-11T01:00:00Z,26.6493,-81.8810,2.2,7.62,1111122 
SCCF RECON,ioos:station:SCCF:53:1,2010-11-11T02:00:00Z,26.6493,-81.8810,2.2,7.67,1111122 
SCCF RECON,ioos:station:SCCF:53:1,2010-11-11T03:00:00Z,26.6493,-81.8810,2.19,7.43,1111122 
SCCF RECON,ioos:station:SCCF:53:1,2010-11-11T04:00:00Z,26.6493,-81.8810,2.16,7.42,1111122 
SCCF RECON,ioos:station:SCCF:53:1,2010-11-11T05:00:00Z,26.6493,-81.8810,2.147,7.34,1111122 
SCCF RECON,ioos:station:SCCF:53:1,2010-11-11T06:00:00Z,26.6493,-81.8810,2.16,7.45,1111122 
SCCF RECON,ioos:station:SCCF:53:1,2010-11-11T07:00:00Z,26.6493,-81.8810,2.2,7.69,1111122 
SCCF RECON,ioos:station:SCCF:53:1,2010-11-11T08:00:00Z,26.6493,-81.8810,2.256,8.08,1111122 
SCCF RECON,ioos:station:SCCF:53:1,2010-11-11T09:00:00Z,26.6493,-81.8810,2.3,8.29,1111122 
SCCF RECON,ioos:station:SCCF:53:1,2010-11-11T10:00:00Z,26.6493,-81.8810,2.34,8.02,1111122 
SCCF RECON,ioos:station:SCCF:53:1,2010-11-11T11:00:00Z,26.6493,-81.8810,2.36,7.96,1111122 
SCCF RECON,ioos:station:SCCF:53:1,2010-11-11T12:00:00Z,26.6493,-81.8810,2.33,7.91,1111122 
SCCF RECON,ioos:station:SCCF:53:1,2010-11-11T13:00:00Z,26.6493,-81.8810,2.28,7.87,1111122 
SCCF RECON,ioos:station:SCCF:53:1,2010-11-11T14:00:00Z,26.6493,-81.8810,2.23,7.71,1111122 
SCCF RECON,ioos:station:SCCF:53:1,2010-11-11T15:00:00Z,26.6493,-81.8810,2.177,7.84,1111122 
SCCF RECON,ioos:station:SCCF:53:1,2010-11-11T16:00:00Z,26.6493,-81.8810,2.12,7.94,1111122 
SCCF RECON,ioos:station:SCCF:53:1,2010-11-11T17:00:00Z,26.6493,-81.8810,2.06,8.09,1111122 
SCCF RECON,ioos:station:SCCF:53:1,2010-11-11T18:00:00Z,26.6493,-81.8810,2.008,8.13,1111122 
SCCF RECON,ioos:station:SCCF:53:1,2010-11-11T19:00:00Z,26.6493,-81.8810,1.969,8.24,1111122 
SCCF RECON,ioos:station:SCCF:53:1,2010-11-11T20:00:00Z,26.6493,-81.8810,1.968,7.97,1111122 